Погода в Глебове

Россия / Орловская область     52°56′19″N   37°46′05″E
темп.,
°C
ветер,
м/с
пор.,
м/с
влажн.,
%
обл.,
%
осадки,
мм/ч
давл.,
гПа
погр.,
м
17 мая, пн
пн1700:00+15всв47795 0.0 1012117
03:00+14всв4129136 1.1 1012211
06:00+15всв499714 0.0 1010208
09:00+21вюв697246 0.0 1010410
12:00+24вюв7115428 0.0 1010927
15:00+25вюв81354100 0.0 10081463
18:00+22вюв715635 0.0 1008657
21:00+19вюв717695 0.0 1008450
18 мая, вт
вт1800:00+18юв515715 0.0 1008353
03:00+15вюв410805 0.0 1008182
06:00+14вюв498096 0.0 1007188
09:00+19вюв7146437 0.0 1007465
12:00+24юв71149100 0.0 1007959
15:00+24вюв7125574 0.0 10051618
18:00+21юв6116398 0.0 1005568
21:00+16ю61487100 0.6 1007613
19 мая, ср
ср1900:00+15вюв488893 0.0 1007281
03:00+14юв379599 0.0 1007177
06:00+14вюв4794100 0.4 1007288
09:00+18юв5775100 0.4 1007668
12:00+21юв576179 0.0 10071619
15:00+20юв366693 0.2 10071150
18:00+19юв487359 0.4 1006283
21:00+16зюз2286100 0.4 100624
20 мая, чт
чт2000:00+14ююз239467 0.0 100646
03:00+12ю499493 0.1 1006301
06:00+13ююв479598 0.0 1006457
09:00+15ю567798 0.1 1006887
12:00+16ю787490 0.3 1006823
15:00+18ю35625 0.4 10061008
18:00+17ю587788 0.9 1005901
21:00+12ююз6119074 1.3 1007579
21 мая, пт
пт2100:00+10ююз615880 0.0 1008762
03:00+10ю61489100 0.0 1008576
06:00+11ююз71387100 0.0 1008750
09:00+11ююз712805 0.0 1009793
12:00+15юз9157147 0.2 10101601
15:00+13юз7137624 0.4 10111296
18:00+12зюз913775 0.3 10131254
21:00+9зюз71281100 0.3 1016819